Weather in Joniskis

Lithuania     56°14′11″N   23°36′54″E
temp.,
°C
wind,
m/s
gust,
m/s
humid.,
%
clouds,
%
prec.,
mm/h
press.,
hPa
HPBL,
m
6 august, fri
fri600:00+12e398728 0.0 1013168
03:00+10ene4109419 0.0 1012210
06:00+10ne51490100 0.0 1011383
09:00+14ene81475100 0.0 1010741
12:00+17ene81260100 0.0 10081126
15:00+19ene81158100 0.0 10061251
18:00+14ene71492100 0.9 1005664
21:00+14ne71595100 3.1 1003753
7 august, sat
sat700:00+14ne61396100 0.4 1002780
03:00+15ne61297100 0.9 1001612
06:00+15ne51098100 2.1 1000494
09:00+15ne4898100 2.7 1000405
12:00+17e2391100 0.3 1001371
15:00+18s2386100 1.0 1002444
18:00+17w2393100 0.8 1003304
21:00+16w3695100 0.9 1005262
8 august, sun
sun800:00+16wsw3796100 0.0 1007251
03:00+14wsw379830 0.0 1008174
06:00+13wsw35965 0.0 1010103
09:00+16sw238411 0.0 1010273
12:00+21s3459100 0.0 1011772
15:00+23se5557100 0.0 1010892
18:00+21ese3870100 0.2 1009340
21:00+18se3109371 3.8 1008346
9 august, mon
mon900:00+17sw5119619 0.2 1009354
03:00+17wsw71294100 0.2 1011665
06:00+16wsw511949 0.0 1013402
09:00+18sw5108556 0.0 1014580
12:00+22sw79555 0.0 10151499
15:00+23wsw895422 0.1 10161647
18:00+21wsw68629 0.5 10171245
21:00+16wsw498333 0.6 1018337
10 august, tue
tue1000:00+14sw36965 0.0 1019135
03:00+13sw3596100 0.0 1019105
06:00+13sw2390100 0.0 101954
09:00+17ssw2371100 0.0 1019266
12:00+21s4564100 1.6 1018654
15:00+22s3454100 2.0 1018937
18:00+20se466369 0.1 1016440
21:00+16sw61192100 2.9 1016435